Shelton, WA
on Sunday, January 13, 2013

Sunday
Previous Day Next Day
Daily Summary
 ActualAverage (KOLM)Record (KOLM)
Temperature
Mean Temperature °F 40°F  
Max Temperature 36°F 46°F 57°F (1994)
Min Temperature 24°F 34°F 11°F (1963)
Degree Days
Heating Degree Days 35 25  
Month to date heating degree days 335  
Since 1 July heating degree days 2605  
Cooling Degree Days 0 0  
Month to date cooling degree days 0  
Year to date cooling degree days 0  
Moisture
Dew Point 26°F   
Average Humidity 85    
Maximum Humidity 100    
Minimum Humidity 67    
Precipitation
Precipitation 0.00 in 0.25 in 2.08 in (1970)
Month to date precipitation 3.35  
Year to date precipitation 3.35  
Wind
Wind Speed 0 mph   
Max Wind Speed 4 mph   
Max Gust Speed mph   
Visibility 10 miles   
Events     

Key: T is trace of precipitation, MM is missing value
Source: NWS Daily Summary
Time(PST)TemperatureDew PointHumidity Pressure Visibility Wind DirectionWind SpeedGust SpeedPrecipitationEvents Conditions
12:53 AM 27.0°F 25.0°F 92% 30.44 in 10.0 miles Calm Calm - N/A   Clear
1:53 AM 26.1°F 25.0°F 96% 30.45 in 10.0 miles Calm Calm - N/A   Overcast
2:53 AM 27.0°F 26.1°F 96% 30.45 in 10.0 miles Calm Calm - N/A   Overcast
3:53 AM 28.0°F 26.1°F 92% 30.44 in 10.0 miles Calm Calm - N/A   Overcast
4:53 AM 28.0°F 27.0°F 96% 30.43 in 10.0 miles Calm Calm - N/A   Overcast
5:53 AM 28.0°F 26.1°F 92% 30.44 in 10.0 miles Calm Calm - N/A   Overcast
6:27 AM 26.6°F 26.6°F 100% 30.42 in 10.0 miles Calm Calm - N/A   Scattered Clouds
6:53 AM 26.1°F 24.1°F 92% 30.45 in 8.0 miles Calm Calm - N/A   Clear
7:37 AM 26.6°F 26.6°F 100% 30.44 in 10.0 miles Calm Calm - N/A   Mostly Cloudy
7:53 AM 24.1°F 24.1°F 100% 30.47 in 10.0 miles Calm Calm - N/A   Mostly Cloudy
8:53 AM 25.0°F 24.1°F 96% 30.48 in 10.0 miles Calm Calm - N/A   Overcast
9:53 AM 30.0°F 28.0°F 92% 30.48 in 10.0 miles Calm Calm - N/A   Overcast
10:53 AM 32.0°F 28.9°F 88% 30.48 in 10.0 miles Calm Calm - N/A   Overcast
11:53 AM 34.0°F 27.0°F 75% 30.46 in 10.0 miles Calm Calm - N/A   Overcast
12:53 PM 34.0°F 26.1°F 73% 30.45 in 10.0 miles Calm Calm - N/A   Mostly Cloudy
1:04 PM 35.6°F 26.6°F 70% 30.43 in 10.0 miles WNW 3.5 mph - N/A   Scattered Clouds
1:27 PM 35.6°F 26.6°F 70% 30.43 in 10.0 miles Calm Calm - N/A   Mostly Cloudy
1:53 PM 36.0°F 26.1°F 67% 30.46 in 10.0 miles Calm Calm - N/A   Mostly Cloudy
2:17 PM 35.6°F 26.6°F 70% 30.43 in 10.0 miles ESE 3.5 mph - N/A   Scattered Clouds
2:39 PM 35.6°F 26.6°F 70% 30.43 in 10.0 miles Calm Calm - N/A   Mostly Cloudy
2:53 PM 36.0°F 26.1°F 67% 30.45 in 10.0 miles Calm Calm - N/A   Mostly Cloudy
3:53 PM 35.1°F 26.1°F 70% 30.45 in 10.0 miles East 3.5 mph - N/A   Mostly Cloudy
4:31 PM 35.6°F 26.6°F 70% 30.44 in 10.0 miles Calm Calm - N/A   Scattered Clouds
4:45 PM 33.8°F 26.6°F 75% 30.44 in 10.0 miles Calm Calm - N/A   Mostly Cloudy
4:53 PM 34.0°F 27.0°F 75% 30.46 in 10.0 miles Calm Calm - N/A   Mostly Cloudy
5:19 PM 30.2°F 26.6°F 86% 30.44 in 10.0 miles Calm Calm - N/A   Partly Cloudy
5:53 PM 30.0°F 26.1°F 85% 30.47 in 10.0 miles Calm Calm - N/A   Clear
6:53 PM 28.9°F 27.0°F 92% 30.47 in 10.0 miles Calm Calm - N/A   Clear
7:53 PM 27.0°F 25.0°F 92% 30.48 in 10.0 miles Calm Calm - N/A   Clear
8:53 PM 26.1°F 24.1°F 92% 30.49 in 10.0 miles Calm Calm - N/A   Clear
9:53 PM 26.1°F 25.0°F 96% 30.48 in 10.0 miles Calm Calm - N/A   Clear
10:53 PM 25.0°F 24.1°F 96% 30.49 in 5.0 miles Calm Calm - N/A   Clear
11:53 PM 24.1°F 23.0°F 96% 30.49 in 5.0 miles Calm Calm - N/A   Clear
Moon Phase
Jan. 13 Jan. 18 Jan. 26 Feb. 03 Feb. 10
Sunrise:07:55 AM (PST) Moon Rise:08:45 AM (PST)1/13
Sunset:04:47 PM (PST) Moon Set:07:46 PM (PST)1/13

Copyright © 2014 The Weather Underground, Inc.